Stations météo

réclame
Mon MeteoGroup
Lakenheath/RAF, Grande-Bretagne (3583): Température de l'air & dewpoint: 18.05.2019 02:00:00 - 24.05.2019 02:00:00 (BST)Lakenheath/RAF, Grande-Bretagne (3583): Vitesse du vent: 18.05.2019 02:00:00 - 24.05.2019 02:00:00 (BST)Lakenheath/RAF, Grande-Bretagne (3583): Direction du vent: 18.05.2019 02:00:00 - 24.05.2019 02:00:00 (BST)Lakenheath/RAF, Grande-Bretagne (3583): reduced air pressure: 18.05.2019 02:00:00 - 24.05.2019 02:00:00 (BST)Lakenheath/RAF, Grande-Bretagne (3583): visibility: 18.05.2019 02:00:00 - 24.05.2019 02:00:00 (BST)Lakenheath/RAF, Grande-Bretagne (3583): Quantités de précipitations: 18.05.2019 02:00:00 - 24.05.2019 02:00:00 (BST)
Date & Time tt [°C] td [°C] ff [km/h] ff [knt] dd ppp [hPa] vv [km] rr [mm]
24.05.2019 02:00:00 11,7 11,1 5 3 NNW 1014,9 10 -
24.05.2019 01:00:00 11,5 11,0 0 0 N 1014,5 10 -
24.05.2019 00:00:00 12,5 11,9 0 0 N 1014,2 10 -
23.05.2019 23:00:00 14,2 12,4 0 0 N 1014,2 10 -
23.05.2019 22:00:00 16,0 12,9 0 0 N 1014,5 10 -
23.05.2019 21:00:00 18,8 14,1 0 0 N 1014,2 10 -
23.05.2019 20:00:00 20,2 14,1 5 3 NW 1013,8 10 -
23.05.2019 19:00:00 21,5 13,9 13 7 WNW 1013,5 10 -
23.05.2019 18:00:00 21,4 13,8 13 7 WNW 1013,8 10 -
23.05.2019 17:00:00 22,1 14,0 22 12 W 1014,2 10 -
23.05.2019 16:00:00 21,8 14,2 16 9 WNW 1014,5 10 -
23.05.2019 15:00:00 21,3 14,0 21 11 W 1014,9 10 -
23.05.2019 14:00:00 20,7 13,6 11 6 WSW 1015,5 10 -
23.05.2019 13:00:00 20,2 11,9 15 8 WSW 1015,5 10 -
23.05.2019 12:00:00 18,8 10,6 15 8 W 1016,2 10 -
23.05.2019 11:00:00 17,7 10,8 9 5 W 1016,5 10 -
23.05.2019 10:00:00 16,4 10,5 9 5 WSW 1016,9 10 -
23.05.2019 09:00:00 14,7 9,7 0 0 N 1016,9 10 -
23.05.2019 08:00:00 12,9 9,0 0 0 N 1016,9 10 -
23.05.2019 07:00:00 10,4 7,5 8 4 SW 1016,5 10 -
23.05.2019 06:00:00 8,1 5,9 0 0 N 1016,6 10 -
23.05.2019 05:00:00 8,1 5,9 0 0 N 1016,2 10 -
23.05.2019 04:00:00 9,5 6,0 0 0 N 1016,5 10 -
23.05.2019 03:00:00 11,4 7,1 0 0 N 1016,9 10 -
23.05.2019 02:00:00 12,2 8,7 11 6 SSW 1016,9 10 -
23.05.2019 01:00:00 13,1 9,5 8 4 SSW 1016,9 10 -
23.05.2019 00:00:00 13,1 9,3 0 0 N 1016,9 10 -
22.05.2019 23:00:00 13,5 9,2 0 0 N 1017,2 10 -
22.05.2019 22:00:00 14,5 9,1 8 4 SSE - 10 -
22.05.2019 21:00:00 17,0 6,2 5 3 SSW - 10 -
22.05.2019 20:00:00 18,0 6,5 11 6 W 1017,2 10 -
22.05.2019 19:00:00 19,2 7,0 15 8 W 1017,6 10 -
22.05.2019 18:00:00 19,7 6,8 16 9 W 1017,6 10 -
22.05.2019 17:00:00 19,6 6,3 15 8 WSW 1018,3 10 -
22.05.2019 16:00:00 19,8 8,2 24 13 W 1018,6 10 -
22.05.2019 15:00:00 19,1 7,2 18 10 W 1018,9 10 -
22.05.2019 14:00:00 18,4 6,6 15 8 WSW 1019,3 10 -
22.05.2019 13:00:00 17,6 6,5 13 7 SSW 1019,3 10 -
22.05.2019 12:00:00 17,0 5,9 13 7 W 1019,6 10 -
22.05.2019 11:00:00 17,3 6,8 9 5 WSW 1019,6 10 -
22.05.2019 10:00:00 11,6 6,3 8 4 SSW 1019,6 10 -
22.05.2019 09:00:00 11,6 6,3 0 0 N 1019,6 10 -
22.05.2019 08:00:00 11,6 6,3 0 0 N 1019,6 10 -
22.05.2019 07:00:00 8,7 5,1 5 3 SW 1019,6 10 -
22.05.2019 06:00:00 5,9 3,2 0 0 N 1019,6 10 -
22.05.2019 05:00:00 5,9 2,9 0 0 N 1019,3 10 -
22.05.2019 04:00:00 6,2 3,0 8 4 WSW 1019,6 10 -
22.05.2019 03:00:00 6,5 2,8 5 3 W 1019,6 10 -
22.05.2019 02:00:00 7,7 3,7 5 3 WNW 1019,3 10 -
22.05.2019 01:00:00 9,2 8,6 8 4 WSW 1018,9 10 -
22.05.2019 00:00:00 11,2 9,5 0 0 N 1018,6 10 -
21.05.2019 23:00:00 13,0 9,8 9 5 NW 1018,6 10 -
21.05.2019 22:00:00 14,9 8,6 9 5 WNW 1018,6 10 -
21.05.2019 21:00:00 16,1 9,5 5 3 E 1018,3 10 -
21.05.2019 20:00:00 16,9 9,1 5 3 E 1017,9 10 -
21.05.2019 19:00:00 18,3 7,4 9 5 N 1017,6 10 -
21.05.2019 18:00:00 18,8 7,9 8 4 N 1017,6 10 -
21.05.2019 17:00:00 18,6 7,1 11 6 NNW 1017,6 10 -
21.05.2019 16:00:00 18,4 7,5 11 6 N 1017,6 10 -
21.05.2019 15:00:00 18,6 7,7 15 8 N 1017,6 10 -
21.05.2019 14:00:00 18,3 7,4 15 8 N 1017,6 10 -
21.05.2019 13:00:00 17,5 8,9 16 9 NW 1017,6 10 -
21.05.2019 12:00:00 17,5 9,9 18 10 NW 1017,2 10 -
21.05.2019 11:00:00 16,1 10,2 16 9 N 1017,2 10 -
21.05.2019 10:00:00 14,4 10,0 16 9 WNW 1017,2 10 0,0
21.05.2019 09:00:00 12,3 12,0 16 9 WNW 1017,2 10 -
21.05.2019 08:00:00 10,6 10,6 11 6 WNW 1017,2 10 -
21.05.2019 07:00:00 8,2 8,2 11 6 W 1016,6 10 -
21.05.2019 06:00:00 7,2 7,2 5 3 W 1016,6 0,2 -
21.05.2019 05:00:00 6,9 6,9 0 0 N 1016,2 0,2 -
21.05.2019 04:00:00 7,4 7,4 8 4 W 1015,5 0,6 -
21.05.2019 03:00:00 8,0 8,0 0 0 N 1015,5 0,4 -
21.05.2019 02:00:00 6,9 6,0 0 0 N 1015,2 10 -
21.05.2019 01:00:00 8,3 7,1 5 3 W 1015,2 10 -
21.05.2019 00:00:00 9,1 8,2 0 0 N 1014,9 10 -
20.05.2019 23:00:00 11,3 8,5 0 0 N 1014,9 10 -
20.05.2019 22:00:00 12,3 8,6 5 3 NNE 1014,5 10 -
20.05.2019 21:00:00 14,6 9,8 9 5 N 1013,8 10 -
20.05.2019 20:00:00 16,4 10,0 9 5 NNW 1013,2 10 -
20.05.2019 19:00:00 17,0 9,7 8 4 NW 1012,8 10 -
20.05.2019 18:00:00 18,5 9,8 16 9 NNW 1012,8 10 -
20.05.2019 17:00:00 18,1 9,4 9 5 N 1012,5 10 -
20.05.2019 16:00:00 18,4 9,5 13 7 N 1012,5 10 -
20.05.2019 15:00:00 17,9 10,0 18 10 N 1012,5 10 -
20.05.2019 14:00:00 16,8 11,1 21 11 N 1012,5 10 -
20.05.2019 13:00:00 16,1 11,9 16 9 NNW 1012,5 10 -
20.05.2019 12:00:00 14,3 11,4 16 9 N 1012,5 10 -
20.05.2019 11:00:00 13,3 11,7 13 7 N 1012,2 10 0,0
20.05.2019 10:00:00 12,4 11,6 9 5 NNW 1012,2 8 -
20.05.2019 09:00:00 11,9 11,7 8 4 NW 1011,8 8 -
20.05.2019 08:00:00 11,5 11,5 15 8 WNW 1011,5 6 0,0
20.05.2019 07:00:00 11,1 11,1 11 6 WNW 1011,1 5 0,0
20.05.2019 06:00:00 10,8 10,8 8 4 N 1010,8 6 0,0
20.05.2019 05:00:00 10,8 10,8 8 4 NW 1010,5 6 -
20.05.2019 04:00:00 10,7 10,7 5 3 NW 1010,5 9 -
20.05.2019 03:00:00 11,0 10,7 5 3 NNW 1010,5 10 -
20.05.2019 02:00:00 11,1 10,8 5 3 NW 1010,8 10 -
20.05.2019 01:00:00 11,5 10,7 5 3 NW 1010,8 10 -
20.05.2019 00:00:00 11,6 11,3 5 3 NW 1011,1 10 0,0
19.05.2019 23:00:00 11,9 10,3 0 0 N 1011,1 10 0,3
19.05.2019 22:00:00 12,5 9,7 9 5 E 1010,8 10 0,0
19.05.2019 21:00:00 13,8 8,6 11 6 ENE 1010,5 10 -
19.05.2019 20:00:00 15,1 9,9 15 8 NE 1009,8 10 -
19.05.2019 19:00:00 16,4 10,7 15 8 ENE 1009,4 10 -
19.05.2019 18:00:00 17,3 10,7 11 6 NE 1009,1 10 -
19.05.2019 17:00:00 17,5 9,9 13 7 NE 1009,4 10 -
19.05.2019 16:00:00 17,5 9,9 11 6 NNE 1009,4 10 0,0
19.05.2019 15:00:00 17,3 9,9 8 4 NNE 1009,4 10 0,0
19.05.2019 14:00:00 17,0 11,0 9 5 NNE 1009,8 10 -
19.05.2019 13:00:00 16,6 11,7 8 4 NNW 1009,8 10 -
19.05.2019 12:00:00 15,5 12,4 8 4 NW 1009,8 10 -
19.05.2019 11:00:00 13,2 13,2 5 3 NW 1009,8 8 -
19.05.2019 10:00:00 11,9 11,9 8 4 NW 1009,8 6 -
19.05.2019 09:00:00 10,1 10,1 0 0 N 1009,4 1,8 -
19.05.2019 08:00:00 9,3 9,3 0 0 N 1009,5 0,2 -
19.05.2019 07:00:00 7,7 7,7 0 0 N 1008,8 - -
19.05.2019 06:00:00 6,9 6,9 0 0 N 1008,8 - -
19.05.2019 05:00:00 8,0 8,0 0 0 N 1008,8 0,2 0,0
19.05.2019 04:00:00 7,1 7,1 0 0 N 1008,4 0,4 -
19.05.2019 03:00:00 7,6 7,6 0 0 N 1008,4 0,6 -
19.05.2019 02:00:00 8,4 8,4 0 0 N 1008,1 0,6 -
19.05.2019 01:00:00 10,2 10,0 0 0 N 1008,1 5 -
19.05.2019 00:00:00 11,6 11,3 0 0 N 1008,4 8 -
18.05.2019 23:00:00 12,0 11,5 0 0 N 1008,1 9 -
18.05.2019 22:00:00 12,6 11,8 0 0 N 1008,1 10 -
18.05.2019 21:00:00 13,1 11,8 0 0 N 1007,8 10 -
18.05.2019 20:00:00 13,6 11,8 9 5 E 1007,4 10 -
18.05.2019 19:00:00 14,2 11,7 5 3 E 1007,1 10 0,3
18.05.2019 18:00:00 15,0 12,0 9 5 E 1006,7 10 -
18.05.2019 17:00:00 15,3 10,7 8 4 N 1006,4 10 0,0
18.05.2019 16:00:00 13,9 11,8 5 3 N 1006,4 10 1,3
18.05.2019 15:00:00 14,8 10,6 13 7 WNW 1006,1 10 0,0
18.05.2019 14:00:00 16,3 9,2 8 4 SW 1006,1 10 -
18.05.2019 13:00:00 15,1 9,7 9 5 S 1006,1 10 -
18.05.2019 12:00:00 14,2 9,4 5 3 SSW 1006,1 10 -
18.05.2019 11:00:00 13,2 9,4 5 3 E 1006,1 10 -
18.05.2019 10:00:00 12,2 10,1 0 0 N 1006,1 10 0,0
18.05.2019 09:00:00 11,3 10,7 0 0 N 1006,1 10 0,0
18.05.2019 08:00:00 10,9 10,7 5 3 SE 1006,1 10 -
18.05.2019 07:00:00 10,6 10,6 5 3 ESE 1005,4 10 -
18.05.2019 06:00:00 10,0 10,0 0 0 N 1005,4 10 -
18.05.2019 05:00:00 10,1 10,1 0 0 N 1005,4 10 -
18.05.2019 04:00:00 10,3 10,3 0 0 N 1005,7 10 0,3
18.05.2019 03:00:00 10,3 10,3 0 0 N 1006,1 5 0,3
18.05.2019 02:00:00 10,3 10,1 0 0 N 1006,4 8 -

tt = Température de l'air
td = dewpoint
ff = Vitesse du vent
dd = Direction du vent
ppp = reduced air pressure
vv = visibility
rr = Quantités de précipitations

stations d'obs. à proximité